Weather History for Cairo, Egypt

Change the Weather History Date:

Thursday, May 23, 2013

  Actual Average Record
Temperature  
Mean Temperature 84 °F -  
Max Temperature 96 °F 90 °F 98 °F (2001)
Min Temperature 71 °F 68 °F 62 °F (2004)
Cooling Degree Days 18    
Growing Degree Days 34 (Base 50)    
Moisture  
Dew Point 50 °F    
Average Humidity 37    
Maximum Humidity 78    
Minimum Humidity 7    
Precipitation  
Precipitation 0.00 in 0.00 in - ()
Sea Level Pressure  
Sea Level Pressure 29.87 in    
Wind  
Wind Speed 11 mph ()    
Max Wind Speed 18 mph    
Max Gust Speed -    
Visibility 4.4 miles    
Events      
Averages and records for this station are not official NWS values.
T = Trace of Precipitation, MM = Missing Value Source: Averaged Metar Reports

Daily Weather History Graph

Daily Weather History Graph

Search for Another Location

Airport:

Trip Planner

Search our weather history database for the weather conditions in past years. The results will help you decide how hot, cold, wet, or windy it might be!

Date:

Astronomy

May. 23, 2013 Rise Set
Actual Time 4:56 AM EET 6:45 PM EET
Civil Twilight 4:29 AM EET 7:12 PM EET
Nautical Twilight 3:57 AM EET 7:44 PM EET
Astronomical Twilight 3:23 AM EET 8:18 PM EET
Moon 5:00 PM EET (5/23) 3:18 AM EET (5/23)
Length of Visible Light 14h 42m
Length of Day
13h 49m
Waxing Gibbous, 95% of the Moon is Illuminated
May 23
Waxing Gibbous
May 25
Full
May 31
Last Quarter
Jun 8
New
Jun 16
First Quarter

Hourly Weather History & Observations

Time (EET) Temp. Heat Index Dew Point Humidity Pressure Visibility Wind Dir Wind Speed Gust Speed Precip Events Conditions
12:00 AM 77.0 °F - 62.6 °F 61% 29.89 in - NNE 11.5 mph - N/A   Clear
12:30 AM 77.0 °F - 62.6 °F 61% 29.89 in - NNE 11.5 mph - N/A   Clear
1:00 AM 75.2 °F - 64.4 °F 69% 29.86 in - NNE 11.5 mph - N/A   Clear
1:30 AM 75.2 °F - 64.4 °F 69% 29.86 in - NNE 11.5 mph - N/A   Clear
2:00 AM 74 °F - 63 °F 60% 29.84 in 6 mi NE 9.2 mph - -  
2:00 AM 75.2 °F - 62.6 °F 65% 29.86 in - NE 9.2 mph - N/A   Clear
2:30 AM 73.4 °F - 62.6 °F 69% 29.86 in - NE 9.2 mph - N/A   Clear
3:00 AM 73.4 °F - 62.6 °F 69% 29.86 in - NNE 9.2 mph - N/A   Clear
3:30 AM 73.4 °F - 62.6 °F 69% 29.86 in 3.7 mi NE 9.2 mph - N/A   Unknown
4:00 AM 71.6 °F - 64.4 °F 78% 29.86 in 3.7 mi NNE 9.2 mph - N/A   Unknown
4:30 AM 71.6 °F - 62.6 °F 73% 29.86 in 3.7 mi NNE 9.2 mph - N/A   Unknown
5:00 AM 71.6 °F - 64.4 °F 78% 29.86 in 3.7 mi NNE 6.9 mph - N/A   Unknown
5:30 AM 71.6 °F - 64.4 °F 78% 29.86 in 3.7 mi NNE 6.9 mph - N/A   Unknown
6:00 AM 71.6 °F - 64.4 °F 78% 29.89 in 3.7 mi NE 8.1 mph - N/A   Unknown
6:30 AM 71.6 °F - 64.4 °F 78% 29.89 in 3.7 mi NE 8.1 mph - N/A   Unknown
7:00 AM 75.2 °F - 62.6 °F 65% 29.89 in 3.7 mi ENE 8.1 mph - N/A   Unknown
7:30 AM 77.0 °F - 59.0 °F 54% 29.89 in 3.7 mi NE 11.5 mph - N/A   Unknown
8:00 AM 80 °F - 55 °F 32% 29.89 in 6 mi NE 13.8 mph - -  
8:00 AM 80.6 °F 80.5 °F 55.4 °F 42% 29.89 in - NE 13.8 mph - N/A   Clear
8:30 AM 82.4 °F - 46.4 °F 28% 29.89 in - NE 15.0 mph - N/A   Clear
9:00 AM 84.2 °F - 46.4 °F 27% 29.89 in - NE 16.1 mph - N/A   Clear
9:30 AM 84.2 °F - 46.4 °F 27% 29.89 in - NE 16.1 mph - N/A   Clear
10:00 AM 87.8 °F - 41.0 °F 19% 29.89 in - NE 13.8 mph - N/A   Clear
10:30 AM 87.8 °F - 41.0 °F 19% 29.89 in - NE 13.8 mph - N/A   Clear
11:00 AM 89.6 °F - 39.2 °F 17% 29.92 in - NNE 12.7 mph - N/A   Clear
11:30 AM 89.6 °F - 39.2 °F 17% 29.92 in - NNE 12.7 mph - N/A   Clear
12:00 PM 91.4 °F - 41.0 °F 17% 29.89 in - North 11.5 mph - N/A   Clear
12:30 PM 93.2 °F - 39.2 °F 15% 29.89 in - North 13.8 mph - N/A   Clear
1:00 PM 93.2 °F - 37.4 °F 14% 29.86 in - NNE 11.5 mph - N/A   Clear
1:30 PM 95.0 °F - 32.0 °F 11% 29.86 in - NNE 11.5 mph - N/A   Clear
2:00 PM 95 °F - 38 °F 7% 29.85 in 6 mi North 12.7 mph - -   Clear
2:00 PM 95.0 °F - 39.2 °F 14% 29.86 in - North 12.7 mph - N/A   Clear
2:30 PM 95.0 °F - 37.4 °F 13% 29.83 in - North 15.0 mph - N/A   Clear
3:00 PM 96.8 °F - 37.4 °F 13% 29.83 in - NE 12.7 mph - N/A   Clear
3:30 PM 96.8 °F - 35.6 °F 12% 29.83 in - NE 15.0 mph - N/A   Clear
4:00 PM 96.8 °F - 35.6 °F 12% 29.83 in - NNE 16.1 mph - N/A   Clear
4:30 PM 96.8 °F - 35.6 °F 12% 29.83 in - NNE 15.0 mph - N/A   Clear
5:00 PM 96.8 °F - 39.2 °F 14% 29.86 in - NNE 12.7 mph - N/A   Clear
5:30 PM 96.8 °F - 39.2 °F 14% 29.86 in - NNE 12.7 mph - N/A   Clear
6:00 PM 93.2 °F - 42.8 °F 17% 29.83 in - NNE 13.8 mph - N/A   Clear
6:30 PM 91.4 °F - 42.8 °F 18% 29.83 in - NNE 15.0 mph - N/A   Clear
7:00 PM 89.6 °F - 44.6 °F 21% 29.86 in - NNE 16.1 mph - N/A   Clear
7:30 PM 87.8 °F - 46.4 °F 24% 29.86 in - NNE 17.3 mph - N/A   Clear
8:00 PM 85 °F - 51 °F 20% 29.86 in 6 mi NNE 18.4 mph - -  
8:00 PM 86.0 °F - 50.0 °F 29% 29.86 in - NNE 18.4 mph - N/A   Clear
8:30 PM 86.0 °F - 50.0 °F 29% 29.86 in - NNE 18.4 mph - N/A   Clear
9:00 PM 82.4 °F - 50.0 °F 32% 29.89 in - NE 13.8 mph - N/A   Clear
9:30 PM 82.4 °F - 50.0 °F 32% 29.89 in - NE 13.8 mph - N/A   Clear
10:00 PM 80.6 °F - 50.0 °F 34% 29.89 in - ENE 11.5 mph - N/A   Clear
10:30 PM 80.6 °F - 50.0 °F 34% 29.89 in - ENE 11.5 mph - N/A   Clear
11:00 PM 78.8 °F - 51.8 °F 39% 29.89 in - NE 12.7 mph - N/A   Clear
11:30 PM 78.8 °F - 51.8 °F 39% 29.89 in - NE 12.7 mph - N/A   Clear